When you browse on this site, cookies collect data to enhance your experience and personalize the content and advertising you see.
Visit our Privacy Policy to learn more. By continuing to use the site, you agree to this use of cookies and data.

Hourly Weather Kitzbuhel

Today, 6 August, Thursday

Time Temperature Precipitation Wind Pressure Humidity
00:00 +11°C° 0 mm 1 mps 678 mmHg 94%
01:00 +11°C° 0 mm 1 mps 678 mmHg 94%
02:00 +11°C° 0 mm 1 mps 678 mmHg 94%
03:00 +10°C° 0 mm 1 mps 678 mmHg 93%
04:00 +10°C° 0 mm 1 mps 678 mmHg 93%
05:00 +11°C° 0 mm 0 mps 679 mmHg 89%
06:00 +13°C° 0 mm 0 mps 679 mmHg 84%
07:00 +14°C° 0 mm 0 mps 679 mmHg 80%
08:00 +16°C° 0 mm 0 mps 680 mmHg 72%
09:00 +21°C° 0 mm 1 mps 680 mmHg 65%
10:00 +23°C° 0 mm 1 mps 681 mmHg 58%
11:00 +23°C° 0.1 mm 2 mps 681 mmHg 57%
12:00 +24°C° 0.1 mm 2 mps 681 mmHg 55%
13:00 +25°C° 0.1 mm 2 mps 681 mmHg 54%
14:00 +25°C° 0.2 mm 2 mps 681 mmHg 58%
15:00 +24°C° 0.2 mm 2 mps 681 mmHg 62%
16:00 +24°C° 0.2 mm 2 mps 681 mmHg 65%
17:00 +21°C° 0.2 mm 2 mps 680 mmHg 74%
18:00 +21°C° 0.2 mm 1 mps 680 mmHg 83%
19:00 +19°C° 0.2 mm 1 mps 680 mmHg 92%
20:00 +18°C° 0.1 mm 1 mps 680 mmHg 93%
21:00 +15°C° 0.1 mm 0 mps 680 mmHg 95%
22:00 +14°C° 0.1 mm 0 mps 680 mmHg 97%
23:00 +14°C° 0 mm 0 mps 680 mmHg 96%

Tomorrow, 7 August, Friday

Time Temperature Precipitation Wind Pressure Humidity
00:00 +14°C° 0 mm 0 mps 680 mmHg 96%
01:00 +14°C° 0 mm 1 mps 680 mmHg 96%
02:00 +14°C° 0 mm 1 mps 680 mmHg 96%
03:00 +14°C° 0 mm 1 mps 680 mmHg 96%
04:00 +14°C° 0 mm 1 mps 680 mmHg 95%
05:00 +14°C° 0 mm 0 mps 680 mmHg 93%
06:00 +15°C° 0 mm 0 mps 681 mmHg 91%
07:00 +16°C° 0 mm 0 mps 681 mmHg 89%
08:00 +19°C° 0 mm 0 mps 682 mmHg 81%
09:00 +23°C° 0 mm 1 mps 682 mmHg 72%
10:00 +25°C° 0 mm 1 mps 682 mmHg 63%
11:00 +25°C° 0 mm 1 mps 682 mmHg 60%
12:00 +26°C° 0 mm 1 mps 682 mmHg 57%
13:00 +27°C° 0 mm 1 mps 682 mmHg 54%
14:00 +26°C° 0.4 mm 2 mps 682 mmHg 59%
15:00 +26°C° 0.4 mm 2 mps 682 mmHg 64%
16:00 +25°C° 0.4 mm 2 mps 681 mmHg 69%
17:00 +24°C° 0.6 mm 1 mps 681 mmHg 77%
18:00 +22°C° 0.6 mm 1 mps 681 mmHg 84%
19:00 +19°C° 0.6 mm 0 mps 681 mmHg 91%
20:00 +20°C° 0 mm 1 mps 681 mmHg 91%
21:00 +19°C° 0 mm 1 mps 681 mmHg 92%
22:00 +18°C° 0 mm 1 mps 681 mmHg 92%
23:00 +16°C° 0 mm 1 mps 681 mmHg 92%

Day after tomorrow, 8 August, Saturday

Time Temperature Precipitation Wind Pressure Humidity
00:00 +16°C° 0 mm 1 mps 681 mmHg 92%
01:00 +15°C° 0 mm 1 mps 681 mmHg 91%
02:00 +15°C° 0 mm 1 mps 681 mmHg 91%
03:00 +15°C° 0 mm 1 mps 681 mmHg 91%
04:00 +14°C° 0 mm 1 mps 680 mmHg 91%
05:00 +16°C° 0 mm 1 mps 681 mmHg 89%
06:00 +18°C° 0 mm 1 mps 681 mmHg 87%
07:00 +17°C° 0 mm 0 mps 681 mmHg 85%
08:00 +22°C° 0 mm 1 mps 682 mmHg 75%
09:00 +24°C° 0 mm 1 mps 682 mmHg 65%
10:00 +26°C° 0 mm 1 mps 683 mmHg 55%
11:00 +27°C° 0 mm 1 mps 682 mmHg 51%
12:00 +28°C° 0 mm 1 mps 682 mmHg 47%
13:00 +28°C° 0 mm 2 mps 682 mmHg 44%
14:00 +28°C° 0 mm 2 mps 682 mmHg 47%
15:00 +28°C° 0 mm 2 mps 682 mmHg 49%
16:00 +27°C° 0 mm 2 mps 681 mmHg 52%
17:00 +25°C° 0.2 mm 2 mps 681 mmHg 65%
18:00 +23°C° 0.2 mm 1 mps 681 mmHg 78%
19:00 +21°C° 0.2 mm 1 mps 680 mmHg 90%
20:00 +20°C° 0 mm 1 mps 681 mmHg 91%
21:00 +19°C° 0 mm 1 mps 681 mmHg 92%
22:00 +18°C° 0 mm 1 mps 681 mmHg 93%
23:00 +16°C° 0 mm 1 mps 680 mmHg 93%

9 August, Sunday

Time Temperature Precipitation Wind Pressure Humidity
00:00 +16°C° 0 mm 1 mps 680 mmHg 93%
01:00 +16°C° 0 mm 1 mps 680 mmHg 93%
02:00 +15°C° 0 mm 1 mps 680 mmHg 93%
03:00 +15°C° 0 mm 1 mps 679 mmHg 92%
04:00 +15°C° 0 mm 1 mps 679 mmHg 92%
05:00 +16°C° 0 mm 1 mps 680 mmHg 89%
06:00 +18°C° 0 mm 1 mps 680 mmHg 86%
07:00 +18°C° 0 mm 0 mps 680 mmHg 83%
08:00 +20°C° 0 mm 0 mps 681 mmHg 73%
09:00 +24°C° 0 mm 1 mps 681 mmHg 63%
10:00 +27°C° 0 mm 1 mps 682 mmHg 52%
11:00 +27°C° 0 mm 1 mps 682 mmHg 48%
12:00 +28°C° 0 mm 1 mps 681 mmHg 44%
13:00 +29°C° 0 mm 2 mps 681 mmHg 40%
14:00 +28°C° 0 mm 2 mps 681 mmHg 43%
15:00 +28°C° 0 mm 2 mps 681 mmHg 46%
16:00 +27°C° 0 mm 2 mps 680 mmHg 50%
17:00 +25°C° 0.1 mm 2 mps 680 mmHg 62%
18:00 +23°C° 0.1 mm 1 mps 680 mmHg 75%
19:00 +21°C° 0.1 mm 1 mps 680 mmHg 88%
20:00 +20°C° 0.1 mm 1 mps 680 mmHg 89%
21:00 +19°C° 0.1 mm 1 mps 680 mmHg 90%
22:00 +18°C° 0.1 mm 1 mps 680 mmHg 91%
23:00 +18°C° 0 mm 1 mps 679 mmHg 91%

10 August, Monday

Time Temperature Precipitation Wind Pressure Humidity
00:00 +16°C° 0 mm 1 mps 679 mmHg 90%
01:00 +16°C° 0 mm 1 mps 679 mmHg 90%
02:00 +16°C° 0 mm 1 mps 679 mmHg 90%
03:00 +15°C° 0 mm 1 mps 679 mmHg 89%
04:00 +15°C° 0 mm 1 mps 679 mmHg 89%
05:00 +16°C° 0 mm 1 mps 679 mmHg 86%
06:00 +19°C° 0 mm 1 mps 680 mmHg 83%
07:00 +20°C° 0 mm 1 mps 680 mmHg 80%
08:00 +23°C° 0 mm 1 mps 680 mmHg 71%
09:00 +25°C° 0 mm 1 mps 681 mmHg 61%
10:00 +27°C° 0 mm 1 mps 681 mmHg 51%
11:00 +28°C° 0 mm 1 mps 681 mmHg 48%
12:00 +29°C° 0 mm 1 mps 681 mmHg 44%
13:00 +29°C° 0 mm 2 mps 681 mmHg 41%
14:00 +29°C° 0 mm 2 mps 681 mmHg 44%
15:00 +28°C° 0 mm 2 mps 681 mmHg 48%
16:00 +28°C° 0 mm 2 mps 680 mmHg 51%
17:00 +26°C° 0.5 mm 2 mps 680 mmHg 64%
18:00 +24°C° 0.5 mm 1 mps 680 mmHg 77%
19:00 +19°C° 0.5 mm 0 mps 680 mmHg 90%
20:00 +20°C° 0.1 mm 1 mps 680 mmHg 90%
21:00 +19°C° 0.1 mm 1 mps 680 mmHg 90%
22:00 +18°C° 0.1 mm 1 mps 680 mmHg 90%
23:00 +18°C° 0 mm 1 mps 680 mmHg 90%

11 August, Tuesday

Time Temperature Precipitation Wind Pressure Humidity
00:00 +18°C° 0 mm 1 mps 680 mmHg 90%
01:00 +16°C° 0 mm 1 mps 680 mmHg 89%
02:00 +16°C° 0 mm 1 mps 680 mmHg 89%
03:00 +16°C° 0 mm 1 mps 680 mmHg 89%
04:00 +15°C° 0 mm 1 mps 679 mmHg 88%
05:00 +18°C° 0 mm 1 mps 680 mmHg 86%
06:00 +19°C° 0 mm 1 mps 680 mmHg 83%
07:00 +20°C° 0 mm 1 mps 680 mmHg 81%
08:00 +23°C° 0 mm 1 mps 681 mmHg 73%
09:00 +25°C° 0 mm 1 mps 681 mmHg 65%
10:00 +27°C° 0 mm 1 mps 682 mmHg 57%
11:00 +27°C° 0.1 mm 1 mps 682 mmHg 55%
12:00 +28°C° 0.1 mm 1 mps 682 mmHg 54%
13:00 +28°C° 0.1 mm 2 mps 681 mmHg 52%
14:00 +28°C° 0.5 mm 2 mps 681 mmHg 57%
15:00 +27°C° 0.5 mm 2 mps 681 mmHg 62%
16:00 +26°C° 0.5 mm 2 mps 681 mmHg 67%
17:00 +25°C° 1.1 mm 1 mps 680 mmHg 74%
18:00 +23°C° 1.1 mm 1 mps 680 mmHg 82%
19:00 +21°C° 1.1 mm 1 mps 680 mmHg 90%
20:00 +20°C° 0.3 mm 1 mps 680 mmHg 90%
21:00 +19°C° 0.3 mm 1 mps 680 mmHg 91%
22:00 +18°C° 0.3 mm 1 mps 680 mmHg 92%
23:00 +18°C° 0 mm 1 mps 680 mmHg 92%
Show more